Regional Weather Roundup
Issued by NWS Goodland, KS

Home | Current Version | Previous Version | Graphics & Text | Print | Product List | Glossary On
Versions: 1 2 3 4 5 6 7 8 9 10 11 12 13 14 15 16 17 18 19 20 21 22 23 24 25 26 27 28 29 30 31 32 33 34 35 36 37 38 39 40 41 42 43 44 45 46 47 48 49 50
897
ASUS43 KGLD 250859
RWRGLD

GOODLAND FORECAST AREA HOURLY WEATHER ROUNDUP
NATIONAL WEATHER SERVICE GOODLAND KS
300 AM MDT THU MAY 25 2017

...OFFICIAL OBSERVATIONS...

CITY           SKY/WX    TMP DP  RH WIND       PRES   REMARKS
GOODLAND KS    CLEAR     54  46  74 S18       29.51F
HILL CITY KS   CLEAR     50  45  83 SE8       29.58F
IMPERIAL NEB   CLOUDY    56  45  66 S13       29.48F
MCCOOK NEB     CLEAR     50  45  83 SE8       29.53S
AKRON CO       CLEAR     61  41  47 SW20      29.51F
BURLINGTON CO  CLEAR     52  46  80 S17       29.54F
LIMON CO       CLOUDY    41  40  96 CALM      29.62S
$$

...UNOFFICIAL OBSERVATIONS...

CITY           SKY/WX    TMP DP  RH WIND       PRES   REMARKS
LENORA KS        N/A     52  32  46 MISG        N/A
NORTON KS      CLEAR     50  41  71 SE13G20   29.55F
SHARON SPRINGS   N/A     54  47  77 S20         N/A
TRENTON NEB      N/A     52  32  46 CALM        N/A
KIT CARSON CO    N/A     50  44  80 MISG        N/A
YUMA CO        FAIR      54  43  66 S14       29.49F
$$




USA.gov is the U.S. government's official web portal to all federal, state and local government web resources and services.